Portsmouth, NH

11:40 PM EDT on September 24, 2016 (GMT -0400)
Pease International Tradeport

Weather History for KPSM - July, 2013

Change the Weather History Date:

Tuesday, July 2, 2013

  Actual Average Record
Temperature  
Mean Temperature 66 °F -  
Max Temperature 74 °F 78 °F 92 °F (2014)
Min Temperature 57 °F 59 °F 38 °F (1978)
Growing Degree Days 16 (Base 50)    
Moisture  
Dew Point 67 °F    
Average Humidity 99    
Maximum Humidity 100    
Minimum Humidity 94    
Precipitation  
Precipitation 0.05 in - - ()
Sea Level Pressure  
Sea Level Pressure 30.15 in    
Wind  
Wind Speed 6 mph (East)    
Max Wind Speed 13 mph    
Max Gust Speed -    
Visibility 3 miles    
Events Fog , Rain    
Averages and records for this station are not official NWS values.
T = Trace of Precipitation, MM = Missing Value Source: NWS Daily Summary

Daily Weather History Graph

Daily Weather History Graph

Search for Another Location

Airport or City:

Trip Planner

Search our weather history database for the weather conditions in past years. The results will help you decide how hot, cold, wet, or windy it might be!

Date:

Astronomy

Jul. 02, 2013 Rise Set
Actual Time 5:08 AM EDT 8:26 PM EDT
Civil Twilight 4:33 AM EDT 9:01 PM EDT
Nautical Twilight 3:47 AM EDT 9:46 PM EDT
Astronomical Twilight 2:51 AM EDT 10:42 PM EDT
Moon 1:13 AM EDT (7/2) 3:33 PM EDT (7/2)
Length of Visible Light 16h 28m
Length of Day
15h 17m
Waning Crescent, 26% of the Moon is Illuminated
Jul 2
Waning Crescent
Jul 8
New
Jul 15
First Quarter
Jul 22
Full
Jul 29
Last Quarter

Hourly Weather History & Observations

Time (EDT) Temp. Dew Point Humidity Pressure Visibility Wind Dir Wind Speed Gust Speed Precip Events Conditions
12:58 AM 69.8 °F 69.8 °F 100% 30.08 in 3.0 mi ESE 2.3 mph - 0.00 in   Overcast
1:58 AM 70.2 °F 70.2 °F 100% 30.07 in 3.0 mi SSE 5.8 mph - N/A   Overcast
2:13 AM 69.8 °F 69.8 °F 100% 30.07 in 5.0 mi South 5.8 mph - N/A   Overcast
2:58 AM 70.2 °F 70.2 °F 100% 30.09 in 3.0 mi SSE 6.9 mph - N/A   Overcast
3:43 AM 69.8 °F 69.8 °F 100% 30.08 in 7.0 mi SE 5.8 mph - N/A   Overcast
3:58 AM 70.3 °F 70.3 °F 100% 30.09 in 7.0 mi SSE 5.8 mph - N/A   Overcast
4:21 AM 69.8 °F 69.8 °F 100% 30.07 in 4.0 mi SE 4.6 mph - N/A   Overcast
4:58 AM 70.0 °F 70.0 °F 100% 30.10 in 2.0 mi SE 5.8 mph - 0.01 in Rain Light Rain
5:13 AM 69.8 °F 69.8 °F 100% 30.09 in 2.0 mi SE 4.6 mph - N/A Rain Light Rain
5:28 AM 69.8 °F 69.8 °F 100% 30.10 in 2.0 mi SSE 4.6 mph - N/A   Overcast
5:45 AM 69.8 °F 69.8 °F 100% 30.10 in 2.0 mi SE 5.8 mph - N/A   Overcast
5:58 AM - - N/A% 30.11 in 2.0 mi SSE 5.8 mph - 0.00 in   Overcast
6:43 AM 69.8 °F 69.8 °F 100% 30.11 in 3.0 mi SSE 5.8 mph - N/A   Overcast
6:58 AM 70.2 °F 70.2 °F 100% 30.13 in 3.0 mi SSE 6.9 mph - N/A   Overcast
7:48 AM 71.6 °F 71.6 °F 100% 30.12 in 10.0 mi South 5.8 mph - N/A   Mostly Cloudy
7:58 AM 72.3 °F 72.3 °F 100% 30.14 in 7.0 mi South 5.8 mph - N/A   Mostly Cloudy
8:32 AM 73.4 °F 73.4 °F 100% 30.14 in 7.0 mi South 4.6 mph - N/A   Overcast
8:47 AM 73.4 °F 73.4 °F 100% 30.14 in 5.0 mi SSW 2.3 mph - N/A Rain Light Rain
8:58 AM 73.6 °F 73.4 °F 99% 30.15 in 5.0 mi South 2.3 mph - 0.00 in Rain Light Rain
9:58 AM 74.3 °F 74.1 °F 99% 30.14 in 7.0 mi ESE 2.3 mph - 0.01 in Rain Light Rain
10:28 AM 73.4 °F 73.4 °F 100% 30.14 in 7.0 mi ENE 8.1 mph - N/A   Overcast
10:34 AM 73.4 °F 73.4 °F 100% 30.13 in 4.0 mi East 6.9 mph - N/A   Overcast
10:39 AM 73.4 °F 73.4 °F 100% 30.13 in 4.0 mi East 5.8 mph - N/A   Overcast
10:48 AM 73.4 °F 73.4 °F 100% 30.13 in 0.8 mi NE 12.7 mph - N/A   Overcast
10:58 AM 71.4 °F 71.1 °F 99% 30.16 in 4.0 mi NNE 12.7 mph - 0.01 in   Overcast
11:25 AM 64.4 °F 64.4 °F 100% 30.16 in 4.0 mi NNE 10.4 mph - N/A Rain Light Rain
11:35 AM 64.4 °F 64.4 °F 100% 30.16 in 2.0 mi North 5.8 mph - N/A Rain Light Rain
11:58 AM 63.0 °F 62.6 °F 99% 30.18 in 2.0 mi NNE 8.1 mph - 0.01 in Rain Light Rain
12:58 PM 62.4 °F 62.2 °F 99% 30.19 in 2.0 mi NE 6.9 mph - 0.01 in Rain Light Rain
1:29 PM 62.6 °F 62.6 °F 100% 30.17 in 4.0 mi NNE 9.2 mph - N/A Rain Light Rain
1:58 PM 62.8 °F 62.4 °F 99% 30.19 in 6.0 mi NE 6.9 mph - 0.00 in Rain Light Rain
2:58 PM 62.2 °F 62.1 °F 99% 30.19 in 1.5 mi ENE 6.9 mph - 0.00 in   Light Drizzle
3:58 PM 61.5 °F 61.2 °F 99% 30.18 in 1.5 mi ENE 8.1 mph - 0.00 in   Overcast
4:58 PM 60.3 °F 59.4 °F 97% 30.18 in 1.5 mi ENE 8.1 mph - N/A   Overcast
5:58 PM 59.5 °F 59.4 °F 99% 30.19 in 1.5 mi NE 8.1 mph - N/A   Overcast
6:58 PM 59.7 °F 59.4 °F 99% 30.20 in 1.5 mi ENE 5.8 mph - N/A   Overcast
7:58 PM 58.6 °F 58.5 °F 99% 30.19 in 1.5 mi ENE 6.9 mph - N/A   Overcast
8:43 PM 59.0 °F 57.2 °F 94% 30.21 in 0.8 mi Variable 3.5 mph - N/A   Overcast
8:58 PM 58.3 °F 57.9 °F 99% 30.22 in 0.8 mi Variable 5.8 mph - N/A   Overcast
9:58 PM 57.9 °F 57.7 °F 99% 30.22 in 0.8 mi NE 6.9 mph - N/A   Overcast
10:58 PM 57.9 °F 57.6 °F 99% 30.21 in 0.8 mi ENE 3.5 mph - N/A   Overcast
11:28 PM 57.2 °F 57.2 °F 100% 30.21 in 0.5 mi East 3.5 mph - N/A Fog Fog
11:58 PM 58.1 °F 57.9 °F 99% 30.23 in 0.5 mi North 3.5 mph - N/A Fog Fog